• In Netherlands
  • List of Countries
  • For 7 days
  • Water Temperature
  • Satellite Maps
  • Weather Map
  • Weather Widgets
  • user-avatar
    Login

    Hourly Weather Uige

    Today, 29 July, Saturday

    Time Temperature Precipitation Wind Pressure Humidity
    00:00 +23°C° 0 mm 1 mps 693 mmHg 69%
    01:00 +21°C° 0 mm 1 mps 692 mmHg 76%
    02:00 +21°C° 0 mm 1 mps 692 mmHg 81%
    03:00 +20°C° 0 mm 1 mps 692 mmHg 85%
    04:00 +19°C° 0 mm 1 mps 692 mmHg 89%
    05:00 +20°C° 0 mm 1 mps 692 mmHg 88%
    06:00 +20°C° 0 mm 1 mps 692 mmHg 86%
    07:00 +21°C° 0 mm 1 mps 693 mmHg 80%
    08:00 +25°C° 0 mm 1 mps 693 mmHg 63%
    09:00 +28°C° 0 mm 1 mps 694 mmHg 46%
    10:00 +32°C° 0 mm 2 mps 695 mmHg 29%
    11:00 +34°C° 0 mm 1 mps 694 mmHg 24%
    12:00 +37°C° 0 mm 1 mps 694 mmHg 19%
    13:00 +40°C° 0 mm 1 mps 694 mmHg 15%
    14:00 +40°C° 0 mm 1 mps 693 mmHg 15%
    15:00 +39°C° 0 mm 1 mps 692 mmHg 14%
    16:00 +37°C° 0 mm 1 mps 692 mmHg 14%
    17:00 +35°C° 0 mm 1 mps 692 mmHg 18%
    18:00 +32°C° 0 mm 1 mps 691 mmHg 23%
    19:00 +29°C° 0 mm 2 mps 691 mmHg 27%
    20:00 +27°C° 0 mm 2 mps 692 mmHg 36%
    21:00 +26°C° 0 mm 2 mps 692 mmHg 45%
    22:00 +24°C° 0 mm 2 mps 693 mmHg 54%
    23:00 +23°C° 0 mm 1 mps 693 mmHg 61%

    Tomorrow, 30 July, Sunday

    Time Temperature Precipitation Wind Pressure Humidity
    00:00 +22°C° 0 mm 1 mps 693 mmHg 69%
    01:00 +21°C° 0 mm 1 mps 692 mmHg 77%
    02:00 +20°C° 0 mm 1 mps 692 mmHg 80%
    03:00 +20°C° 0 mm 1 mps 692 mmHg 84%
    04:00 +19°C° 0 mm 1 mps 691 mmHg 88%
    05:00 +20°C° 0 mm 1 mps 692 mmHg 85%
    06:00 +20°C° 0 mm 1 mps 692 mmHg 82%
    07:00 +20°C° 0 mm 1 mps 692 mmHg 79%
    08:00 +24°C° 0 mm 1 mps 693 mmHg 61%
    09:00 +29°C° 0 mm 1 mps 694 mmHg 43%
    10:00 +34°C° 0 mm 2 mps 695 mmHg 24%
    11:00 +35°C° 0 mm 1 mps 694 mmHg 20%
    12:00 +39°C° 0 mm 1 mps 694 mmHg 16%
    13:00 +41°C° 0 mm 1 mps 693 mmHg 12%
    14:00 +40°C° 0 mm 1 mps 692 mmHg 12%
    15:00 +40°C° 0 mm 1 mps 692 mmHg 12%
    16:00 +39°C° 0 mm 1 mps 691 mmHg 12%
    17:00 +35°C° 0 mm 1 mps 691 mmHg 17%
    18:00 +32°C° 0 mm 2 mps 691 mmHg 22%
    19:00 +29°C° 0 mm 2 mps 691 mmHg 26%
    20:00 +27°C° 0 mm 2 mps 692 mmHg 37%
    21:00 +25°C° 0 mm 2 mps 692 mmHg 48%
    22:00 +24°C° 0 mm 2 mps 693 mmHg 59%
    23:00 +23°C° 0 mm 2 mps 692 mmHg 66%

    Day after tomorrow, 31 July, Monday

    Time Temperature Precipitation Wind Pressure Humidity
    00:00 +21°C° 0 mm 2 mps 692 mmHg 73%
    01:00 +21°C° 0 mm 1 mps 692 mmHg 80%
    02:00 +20°C° 0 mm 1 mps 692 mmHg 83%
    03:00 +19°C° 0 mm 1 mps 691 mmHg 86%
    04:00 +18°C° 0 mm 1 mps 691 mmHg 90%
    05:00 +19°C° 0 mm 1 mps 691 mmHg 88%
    06:00 +19°C° 0 mm 1 mps 692 mmHg 87%
    07:00 +19°C° 0 mm 1 mps 692 mmHg 85%
    08:00 +23°C° 0 mm 1 mps 693 mmHg 67%
    09:00 +27°C° 0 mm 1 mps 694 mmHg 49%
    10:00 +31°C° 0 mm 1 mps 695 mmHg 30%
    11:00 +33°C° 0 mm 1 mps 694 mmHg 26%
    12:00 +36°C° 0 mm 1 mps 694 mmHg 21%
    13:00 +39°C° 0 mm 1 mps 693 mmHg 16%
    14:00 +38°C° 0 mm 2 mps 692 mmHg 16%
    15:00 +38°C° 0 mm 2 mps 691 mmHg 16%
    16:00 +38°C° 0 mm 2 mps 691 mmHg 16%
    17:00 +35°C° 0 mm 2 mps 691 mmHg 21%
    18:00 +31°C° 0 mm 2 mps 691 mmHg 26%
    19:00 +28°C° 0 mm 2 mps 691 mmHg 32%
    20:00 +26°C° 0 mm 2 mps 692 mmHg 42%
    21:00 +24°C° 0 mm 2 mps 693 mmHg 53%
    22:00 +23°C° 0 mm 2 mps 693 mmHg 63%
    23:00 +21°C° 0 mm 2 mps 693 mmHg 70%

    1 August, Tuesday

    Time Temperature Precipitation Wind Pressure Humidity
    00:00 +19°C° 0 mm 2 mps 693 mmHg 76%
    01:00 +18°C° 0 mm 2 mps 692 mmHg 82%
    02:00 +18°C° 0 mm 2 mps 692 mmHg 83%
    03:00 +18°C° 0 mm 2 mps 692 mmHg 84%
    04:00 +19°C° 0 mm 1 mps 692 mmHg 84%
    05:00 +19°C° 0 mm 1 mps 692 mmHg 84%
    06:00 +19°C° 0 mm 1 mps 693 mmHg 83%
    07:00 +19°C° 0 mm 1 mps 693 mmHg 83%
    08:00 +22°C° 0 mm 1 mps 693 mmHg 68%
    09:00 +25°C° 0 mm 2 mps 694 mmHg 54%
    10:00 +29°C° 0 mm 2 mps 695 mmHg 39%
    11:00 +31°C° 0 mm 2 mps 694 mmHg 34%
    12:00 +35°C° 0 mm 2 mps 694 mmHg 28%
    13:00 +37°C° 0 mm 2 mps 693 mmHg 23%
    14:00 +36°C° 0 mm 2 mps 693 mmHg 23%
    15:00 +36°C° 0 mm 2 mps 692 mmHg 23%
    16:00 +35°C° 0 mm 2 mps 691 mmHg 23%
    17:00 +32°C° 0 mm 2 mps 692 mmHg 27%
    18:00 +30°C° 0 mm 2 mps 692 mmHg 31%
    19:00 +28°C° 0 mm 2 mps 692 mmHg 35%
    20:00 +27°C° 0 mm 2 mps 693 mmHg 41%
    21:00 +25°C° 0 mm 2 mps 693 mmHg 48%
    22:00 +23°C° 0 mm 2 mps 693 mmHg 55%
    23:00 +21°C° 0 mm 2 mps 693 mmHg 62%

    2 August, Wednesday

    Time Temperature Precipitation Wind Pressure Humidity
    00:00 +21°C° 0 mm 1 mps 693 mmHg 69%
    01:00 +20°C° 0 mm 1 mps 692 mmHg 75%
    02:00 +19°C° 0 mm 1 mps 692 mmHg 79%
    03:00 +19°C° 0 mm 1 mps 692 mmHg 83%
    04:00 +18°C° 0 mm 1 mps 692 mmHg 87%
    05:00 +18°C° 0 mm 1 mps 692 mmHg 86%
    06:00 +18°C° 0 mm 1 mps 693 mmHg 85%
    07:00 +18°C° 0 mm 1 mps 693 mmHg 85%
    08:00 +22°C° 0 mm 1 mps 694 mmHg 70%
    09:00 +25°C° 0 mm 1 mps 694 mmHg 55%
    10:00 +29°C° 0 mm 2 mps 695 mmHg 40%
    11:00 +31°C° 0 mm 2 mps 694 mmHg 35%
    12:00 +34°C° 0 mm 2 mps 694 mmHg 31%
    13:00 +36°C° 0 mm 2 mps 693 mmHg 26%
    14:00 +35°C° 0 mm 2 mps 693 mmHg 27%
    15:00 +35°C° 0 mm 2 mps 692 mmHg 28%
    16:00 +34°C° 0 mm 2 mps 692 mmHg 28%
    17:00 +31°C° 0 mm 2 mps 692 mmHg 31%
    18:00 +30°C° 0 mm 1 mps 692 mmHg 34%
    19:00 +29°C° 0 mm 1 mps 693 mmHg 37%
    20:00 +27°C° 0 mm 1 mps 693 mmHg 43%
    21:00 +25°C° 0 mm 1 mps 693 mmHg 49%
    22:00 +24°C° 0 mm 1 mps 693 mmHg 55%
    23:00 +23°C° 0 mm 1 mps 693 mmHg 60%

    3 August, Thursday

    Time Temperature Precipitation Wind Pressure Humidity
    00:00 +22°C° 0 mm 1 mps 693 mmHg 66%
    01:00 +21°C° 0 mm 1 mps 692 mmHg 71%
    02:00 +20°C° 0 mm 1 mps 692 mmHg 75%
    03:00 +19°C° 0 mm 1 mps 692 mmHg 80%
    04:00 +19°C° 0 mm 1 mps 692 mmHg 84%
    05:00 +19°C° 0 mm 1 mps 692 mmHg 83%
    06:00 +19°C° 0 mm 1 mps 693 mmHg 83%
    07:00 +19°C° 0 mm 1 mps 693 mmHg 82%
    08:00 +23°C° 0 mm 1 mps 694 mmHg 66%
    09:00 +27°C° 0 mm 1 mps 694 mmHg 51%
    10:00 +30°C° 0 mm 2 mps 695 mmHg 36%
    11:00 +32°C° 0 mm 2 mps 694 mmHg 31%
    12:00 +35°C° 0 mm 2 mps 693 mmHg 27%
    13:00 +37°C° 0 mm 2 mps 693 mmHg 23%
    14:00 +36°C° 0 mm 2 mps 692 mmHg 25%
    15:00 +34°C° 0 mm 1 mps 691 mmHg 26%
    16:00 +33°C° 0 mm 1 mps 691 mmHg 27%
    17:00 +32°C° 0 mm 1 mps 691 mmHg 29%
    18:00 +30°C° 0 mm 1 mps 692 mmHg 32%
    19:00 +29°C° 0 mm 1 mps 692 mmHg 35%
    20:00 +28°C° 0 mm 1 mps 692 mmHg 40%
    21:00 +26°C° 0 mm 1 mps 693 mmHg 45%
    22:00 +25°C° 0 mm 1 mps 693 mmHg 50%
    23:00 +24°C° 0 mm 1 mps 693 mmHg 55%
    Show more